| time (UTC) | temp F | wind direction | speed knots | gust knots | rain 1hr in | rain 24hr in | rain mn in | humidity % | barometer mb |
| 20260904104204 | 61 | 263 | 10.4 | 22.6 | 0.00 | 0.43 | 0.01 | 81 | 1010.5 |
| 20260904103703 | 61 | 289 | 7.8 | 13.9 | 0.00 | 0.43 | 0.01 | 83 | 1010.4 |
| 20260904103204 | 60 | 278 | 7.8 | 13.0 | 0.00 | 0.43 | 0.01 | 83 | 1010.4 |
| 20260904102704 | 60 | 265 | 6.1 | 13.9 | 0.00 | 0.43 | 0.01 | 83 | 1010.4 |
| 20260904102204 | 60 | 266 | 7.8 | 17.4 | 0.00 | 0.43 | 0.01 | 83 | 1010.4 |
| 20260904101704 | 60 | 285 | 10.4 | 15.6 | 0.00 | 0.43 | 0.01 | 83 | 1010.4 |
| 20260904101204 | 60 | 262 | 8.7 | 15.6 | 0.00 | 0.43 | 0.01 | 84 | 1010.3 |
| 20260904100704 | 60 | 264 | 7.8 | 14.8 | 0.00 | 0.43 | 0.01 | 84 | 1010.3 |
| 20260904100204 | 60 | 257 | 5.2 | 13.0 | 0.00 | 0.43 | 0.01 | 85 | 1010.2 |
| 20260904095703 | 60 | 276 | 7.0 | 12.2 | 0.00 | 0.43 | 0.01 | 86 | 1010.1 |
| 20260904095204 | 60 | 252 | 7.8 | 15.6 | 0.00 | 0.43 | 0.01 | 85 | 1010.0 |
| 20260904094703 | 60 | 268 | 7.8 | 13.0 | 0.00 | 0.43 | 0.01 | 86 | 1009.9 |
| 20260904094204 | 60 | 243 | 5.2 | 11.3 | 0.00 | 0.43 | 0.01 | 86 | 1010.0 |
| 20260904093704 | 59 | 259 | 8.7 | 17.4 | 0.00 | 0.43 | 0.01 | 86 | 1009.8 |
| 20260904092204 | 59 | 268 | 7.0 | 17.4 | 0.00 | 0.43 | 0.01 | 89 | 1009.5 |
| 20260904091704 | 58 | 272 | 6.1 | 14.8 | 0.00 | 0.44 | 0.01 | 89 | 1009.5 |
| 20260904091203 | 58 | 267 | 7.8 | 12.2 | 0.00 | 0.44 | 0.01 | 89 | 1009.4 |
| 20260904090704 | 58 | 265 | 7.8 | 13.9 | 0.00 | 0.45 | 0.01 | 90 | 1009.4 |
| 20260904090204 | 58 | 277 | 8.7 | 13.9 | 0.00 | 0.45 | 0.01 | 90 | 1009.3 |
| 20260904085704 | 58 | 255 | 6.1 | 13.9 | 0.00 | 0.45 | 0.01 | 91 | 1009.3 |
| 20260904084204 | 57 | 267 | 8.7 | 14.8 | 0.00 | 0.45 | 0.01 | 91 | 1009.0 |
| 20260904083704 | 57 | 268 | 6.1 | 15.6 | 0.00 | 0.45 | 0.01 | 91 | 1008.9 |
| 20260904083204 | 57 | 257 | 10.4 | 19.1 | 0.00 | 0.45 | 0.01 | 91 | 1008.8 |
| 20260904082703 | 57 | 267 | 9.6 | 14.8 | 0.00 | 0.45 | 0.01 | 91 | 1008.5 |
| 20260904082204 | 57 | 251 | 8.7 | 15.6 | 0.00 | 0.45 | 0.01 | 91 | 1008.5 |
| 20260904081703 | 57 | 252 | 10.4 | 15.6 | 0.00 | 0.46 | 0.01 | 91 | 1008.5 |
| 20260904081204 | 57 | 255 | 10.4 | 17.4 | 0.00 | 0.47 | 0.01 | 91 | 1008.2 |
| 20260904080704 | 57 | 249 | 7.8 | 13.0 | 0.00 | 0.47 | 0.01 | 91 | 1008.2 |
| 20260904075704 | 57 | 243 | 8.7 | 17.4 | 0.00 | 0.47 | 0.01 | 91 | 1008.2 |
| 20260904075204 | 57 | 254 | 9.6 | 13.9 | 0.00 | 0.47 | 0.01 | 91 | 1008.2 |
| 20260904074703 | 57 | 254 | 10.4 | 17.4 | 0.00 | 0.47 | 0.01 | 90 | 1008.1 |
| 20260904074204 | 57 | 250 | 11.3 | 17.4 | 0.00 | 0.47 | 0.01 | 90 | 1008.0 |
| 20260904073704 | 57 | 252 | 7.8 | 15.6 | 0.00 | 0.47 | 0.01 | 90 | 1007.9 |
| 20260904073204 | 56 | 253 | 6.1 | 13.9 | 0.00 | 0.47 | 0.01 | 90 | 1007.8 |
| 20260904072704 | 56 | 255 | 6.1 | 11.3 | 0.00 | 0.47 | 0.01 | 90 | 1007.5 |
| 20260904071704 | 55 | 238 | 7.8 | 13.0 | 0.00 | 0.47 | 0.01 | 90 | 1007.6 |
| 20260904071204 | 55 | 250 | 6.1 | 12.2 | 0.00 | 0.47 | 0.01 | 90 | 1007.5 |
| 20260904070704 | 55 | 253 | 8.7 | 14.8 | 0.00 | 0.47 | 0.01 | 90 | 1007.4 |
| 20260904070204 | 55 | 257 | 10.4 | 14.8 | 0.00 | 0.47 | 0.01 | 90 | 1007.3 |
| 20260904064203 | 56 | 257 | 7.0 | 13.0 | 0.00 | 0.47 | 0.01 | 89 | 1007.2 |
| 20260904063704 | 56 | 253 | 8.7 | 13.9 | 0.00 | 0.47 | 0.01 | 89 | 1007.2 |
| 20260904063204 | 56 | 254 | 7.8 | 11.3 | 0.00 | 0.47 | 0.01 | 89 | 1007.1 |
| 20260904062704 | 56 | 245 | 6.1 | 13.0 | 0.00 | 0.47 | 0.01 | 89 | 1007.1 |
| 20260904062204 | 56 | 247 | 5.2 | 11.3 | 0.00 | 0.47 | 0.01 | 89 | 1007.0 |
| 20260904061704 | 55 | 239 | 7.8 | 11.3 | 0.00 | 0.47 | 0.01 | 89 | 1007.1 |
| 20260904061204 | 55 | 233 | 6.1 | 10.4 | 0.00 | 0.47 | 0.01 | 89 | 1006.9 |
| 20260904060703 | 55 | 253 | 7.0 | 13.0 | 0.00 | 0.48 | 0.01 | 89 | 1006.9 |
| 20260904055703 | 55 | 254 | 7.0 | 11.3 | 0.00 | 0.48 | 0.01 | 89 | 1007.0 |
| 20260904055204 | 55 | 239 | 6.1 | 12.2 | 0.00 | 0.48 | 0.01 | 88 | 1007.0 |
| 20260904054704 | 56 | 242 | 10.4 | 17.4 | 0.00 | 0.48 | 0.01 | 88 | 1007.0 |
| 20260904054204 | 56 | 245 | 7.8 | 11.3 | 0.00 | 0.48 | 0.01 | 88 | 1006.9 |
| 20260904053705 | 56 | 254 | 6.1 | 10.4 | 0.00 | 0.48 | 0.01 | 88 | 1006.6 |
| 20260904053204 | 56 | 239 | 5.2 | 7.8 | 0.00 | 0.48 | 0.01 | 88 | 1006.4 |
| 20260904052704 | 56 | 256 | 6.1 | 12.2 | 0.00 | 0.48 | 0.01 | 88 | 1006.4 |
| 20260904052205 | 56 | 256 | 4.3 | 11.3 | 0.00 | 0.48 | 0.01 | 88 | 1006.4 |
| 20260904051204 | 56 | 255 | 6.1 | 11.3 | 0.00 | 0.48 | 0.01 | 88 | 1006.5 |
| 20260904050704 | 56 | 246 | 4.3 | 8.7 | 0.00 | 0.48 | 0.01 | 88 | 1006.4 |
| 20260904050204 | 56 | 263 | 7.0 | 10.4 | 0.00 | 0.48 | 0.01 | 88 | 1006.4 |
| 20260904045703 | 56 | 249 | 6.1 | 10.4 | 0.00 | 0.48 | 0.01 | 88 | 1006.5 |
| 20260904045204 | 56 | 238 | 6.1 | 10.4 | 0.00 | 0.48 | 0.01 | 89 | 1006.4 |
| 20260904044704 | 56 | 241 | 6.1 | 10.4 | 0.00 | 0.48 | 0.01 | 89 | 1006.5 |
| 20260904043704 | 56 | 245 | 7.0 | 12.2 | 0.00 | 0.48 | 0.01 | 90 | 1006.3 |
| 20260904043204 | 56 | 253 | 6.1 | 10.4 | 0.00 | 0.48 | 0.01 | 90 | 1006.3 |
| 20260904042705 | 56 | 252 | 5.2 | 10.4 | 0.00 | 0.48 | 0.01 | 90 | 1006.2 |
| 20260904042203 | 55 | 240 | 5.2 | 10.4 | 0.00 | 0.48 | 0.01 | 90 | 1006.2 |
| 20260904041204 | 56 | 234 | 7.8 | 10.4 | 0.00 | 0.48 | 0.01 | 90 | 1006.2 |
| 20260904040703 | 56 | 252 | 7.8 | 11.3 | 0.00 | 0.48 | 0.01 | 90 | 1006.2 |
| 20260904040204 | 56 | 244 | 6.1 | 13.0 | 0.00 | 0.48 | 0.01 | 90 | 1006.2 |
| 20260904035704 | 56 | 234 | 5.2 | 12.2 | 0.00 | 0.48 | 0.01 | 90 | 1006.1 |
| 20260904035205 | 55 | 249 | 7.0 | 11.3 | 0.00 | 0.48 | 0.01 | 90 | 1005.9 |
| 20260904034704 | 55 | 257 | 6.1 | 11.3 | 0.00 | 0.48 | 0.01 | 90 | 1006.0 |
| 20260904034204 | 55 | 234 | 5.2 | 10.4 | 0.00 | 0.49 | 0.01 | 90 | 1006.0 |
| 20260904033704 | 56 | 235 | 5.2 | 10.4 | 0.00 | 0.49 | 0.01 | 90 | 1005.8 |
| 20260904033204 | 56 | 243 | 7.0 | 12.2 | 0.00 | 0.49 | 0.01 | 90 | 1005.8 |
| 20260904032704 | 56 | 240 | 5.2 | 10.4 | 0.00 | 0.49 | 0.01 | 90 | 1005.8 |
| 20260904032204 | 56 | 242 | 7.8 | 10.4 | 0.00 | 0.49 | 0.01 | 90 | 1005.9 |
| 20260904031704 | 56 | 238 | 5.2 | 10.4 | 0.00 | 0.49 | 0.01 | 90 | 1005.8 |
| 20260904031204 | 56 | 242 | 6.1 | 10.4 | 0.00 | 0.49 | 0.01 | 90 | 1005.9 |
| 20260904025705 | 56 | 262 | 7.0 | 13.0 | 0.01 | 0.49 | 0.01 | 91 | 1005.6 |
| 20260904025203 | 55 | 233 | 7.0 | 11.3 | 0.01 | 0.49 | 0.01 | 91 | 1005.6 |
| 20260904024704 | 55 | 244 | 4.3 | 10.4 | 0.01 | 0.49 | 0.01 | 90 | 1005.6 |
| 20260904024204 | 55 | 243 | 4.3 | 10.4 | 0.01 | 0.49 | 0.01 | 90 | 1005.5 |
| 20260904023704 | 55 | 238 | 5.2 | 13.0 | 0.01 | 0.49 | 0.01 | 90 | 1005.4 |
| 20260904023204 | 55 | 246 | 6.1 | 10.4 | 0.01 | 0.49 | 0.01 | 90 | 1005.7 |
| 20260904022704 | 55 | 244 | 6.1 | 12.2 | 0.01 | 0.49 | 0.01 | 90 | 1005.6 |
| 20260904022205 | 55 | 240 | 7.8 | 14.8 | 0.01 | 0.49 | 0.01 | 90 | 1005.9 |
| 20260904021704 | 55 | 256 | 7.0 | 13.0 | 0.01 | 0.49 | 0.01 | 90 | 1005.6 |
| 20260904021204 | 55 | 248 | 7.0 | 15.6 | 0.01 | 0.49 | 0.01 | 90 | 1005.6 |
| 20260904020704 | 55 | 241 | 9.6 | 14.8 | 0.01 | 0.49 | 0.01 | 90 | 1005.8 |
| 20260904020204 | 55 | 252 | 7.8 | 13.0 | 0.00 | 0.48 | 0.00 | 90 | 1005.9 |
| 20260904015704 | 55 | 243 | 7.8 | 15.6 | 0.00 | 0.48 | 0.00 | 90 | 1005.8 |
| 20260904015204 | 56 | 255 | 7.8 | 13.0 | 0.00 | 0.48 | 0.00 | 90 | 1005.9 |
| 20260904014704 | 56 | 241 | 8.7 | 14.8 | 0.00 | 0.49 | 0.00 | 90 | 1005.9 |
| 20260904013704 | 56 | 250 | 5.2 | 10.4 | 0.00 | 0.50 | 0.00 | 90 | 1006.1 |
| 20260904013204 | 56 | 271 | 4.3 | 8.7 | 0.00 | 0.51 | 0.00 | 90 | 1005.8 |
| 20260904012704 | 56 | 240 | 4.3 | 7.8 | 0.00 | 0.51 | 0.00 | 91 | 1005.9 |
| 20260904011704 | 56 | 248 | 7.0 | 10.4 | 0.00 | 0.51 | 0.00 | 91 | 1006.0 |
| 20260904011204 | 56 | 265 | 7.8 | 10.4 | 0.00 | 0.51 | 0.00 | 91 | 1005.9 |
| 20260904010705 | 56 | 245 | 6.1 | 10.4 | 0.00 | 0.51 | 0.00 | 91 | 1005.8 |
| 20260904005704 | 56 | 249 | 6.1 | 10.4 | 0.00 | 0.51 | 0.00 | 92 | 1005.9 |
| 20260904005204 | 56 | 249 | 6.1 | 12.2 | 0.00 | 0.51 | 0.00 | 92 | 1006.1 |
| 20260904004704 | 56 | 244 | 6.1 | 12.2 | 0.00 | 0.51 | 0.00 | 93 | 1006.0 |
| 20260904004203 | 56 | 260 | 7.8 | 11.3 | 0.00 | 0.51 | 0.00 | 93 | 1005.9 |
| 20260904003703 | 56 | 247 | 6.1 | 12.2 | 0.00 | 0.51 | 0.00 | 93 | 1006.0 |
| 20260904003204 | 56 | 245 | 6.1 | 11.3 | 0.00 | 0.51 | 0.00 | 93 | 1006.1 |
| 20260904002704 | 56 | 251 | 4.3 | 8.7 | 0.00 | 0.51 | 0.00 | 93 | 1006.1 |
| 20260904002203 | 56 | 247 | 4.3 | 8.7 | 0.00 | 0.51 | 0.00 | 94 | 1006.3 |
| 20260904001704 | 56 | 251 | 4.3 | 8.7 | 0.00 | 0.51 | 0.00 | 94 | 1006.2 |
| 20260904000704 | 56 | 259 | 4.3 | 7.0 | 0.00 | 0.51 | 0.00 | 94 | 1006.2 |
| 20260904000204 | 56 | 253 | 5.2 | 7.8 | 0.00 | 0.51 | 0.00 | 94 | 1006.5 |
| 20260903235705 | 56 | 247 | 6.1 | 8.7 | 0.00 | 0.51 | 0.00 | 94 | 1006.3 |
| 20260903235204 | 56 | 257 | 4.3 | 8.7 | 0.00 | 0.51 | 0.00 | 94 | 1006.3 |
| 20260903234704 | 56 | 246 | 3.5 | 7.0 | 0.00 | 0.51 | 0.00 | 94 | 1006.0 |
| 20260903234204 | 56 | 248 | 4.3 | 7.8 | 0.00 | 0.51 | 0.00 | 94 | 1006.0 |
| 20260903233205 | 56 | 245 | 5.2 | 8.7 | 0.00 | 0.51 | 0.00 | 95 | 1006.4 |
| 20260903232204 | 56 | 241 | 4.3 | 7.8 | 0.00 | 0.51 | 0.00 | 95 | 1005.9 |
| 20260903231204 | 56 | 253 | 4.3 | 8.7 | 0.00 | 0.51 | 0.00 | 95 | 1006.2 |
| 20260903230704 | 56 | 241 | 4.3 | 6.1 | 0.00 | 0.51 | 0.00 | 95 | 1006.2 |
| 20260903230204 | 56 | 246 | 4.3 | 8.7 | 0.00 | 0.51 | 0.00 | 95 | 1006.2 |
| 20260903225204 | 56 | 242 | 5.2 | 10.4 | 0.00 | 0.51 | 0.48 | 96 | 1006.1 |
| 20260903224704 | 56 | 242 | 4.3 | 7.8 | 0.00 | 0.51 | 0.48 | 96 | 1006.0 |
| 20260903223703 | 56 | 252 | 6.1 | 11.3 | 0.00 | 0.51 | 0.48 | 96 | 1006.2 |
| 20260903223204 | 56 | 245 | 5.2 | 8.7 | 0.00 | 0.52 | 0.48 | 96 | 1006.4 |
| 20260903222204 | 56 | 254 | 5.2 | 8.7 | 0.07 | 0.52 | 0.48 | 96 | 1006.5 |
| 20260903221703 | 56 | 246 | 3.5 | 6.1 | 0.17 | 0.52 | 0.48 | 96 | 1006.5 |
| 20260903221205 | 56 | 252 | 5.2 | 7.0 | 0.20 | 0.52 | 0.48 | 96 | 1006.5 |
| 20260903220704 | 56 | 239 | 4.3 | 8.7 | 0.22 | 0.52 | 0.48 | 96 | 1006.8 |
| 20260903220204 | 56 | 246 | 4.3 | 7.0 | 0.24 | 0.52 | 0.48 | 96 | 1006.4 |
| 20260903215703 | 56 | 257 | 4.3 | 10.4 | 0.24 | 0.53 | 0.48 | 96 | 1006.3 |
| 20260903215203 | 56 | 242 | 4.3 | 10.4 | 0.24 | 0.53 | 0.48 | 96 | 1006.3 |
| 20260903214704 | 56 | 241 | 4.3 | 10.4 | 0.24 | 0.53 | 0.48 | 96 | 1006.4 |
| 20260903213704 | 56 | 250 | 7.0 | 11.3 | 0.24 | 0.53 | 0.48 | 95 | 1006.5 |
| 20260903213203 | 56 | 251 | 6.1 | 11.3 | 0.24 | 0.53 | 0.48 | 95 | 1006.5 |
| 20260903212704 | 57 | 261 | 5.2 | 12.2 | 0.23 | 0.51 | 0.46 | 95 | 1006.6 |
| 20260903212204 | 57 | 267 | 7.0 | 11.3 | 0.17 | 0.46 | 0.41 | 95 | 1006.6 |
| 20260903211703 | 58 | 263 | 5.2 | 11.3 | 0.07 | 0.35 | 0.31 | 96 | 1006.6 |
| 20260903211204 | 58 | 234 | 4.3 | 11.3 | 0.04 | 0.32 | 0.28 | 96 | 1006.4 |
| 20260903210704 | 58 | 236 | 4.3 | 8.7 | 0.02 | 0.31 | 0.26 | 95 | 1006.4 |
| 20260903205704 | 58 | 201 | 5.2 | 10.4 | 0.00 | 0.28 | 0.24 | 95 | 1006.5 |
| 20260903205204 | 58 | 224 | 6.1 | 10.4 | 0.00 | 0.28 | 0.24 | 95 | 1006.5 |
| 20260903204704 | 58 | 220 | 8.7 | 13.9 | 0.00 | 0.28 | 0.24 | 96 | 1006.4 |
| 20260903204204 | 58 | 223 | 8.7 | 14.8 | 0.00 | 0.28 | 0.24 | 96 | 1006.3 |
| 20260903203704 | 58 | 226 | 5.2 | 11.3 | 0.00 | 0.28 | 0.24 | 96 | 1006.3 |
| 20260903202705 | 58 | 235 | 6.1 | 12.2 | 0.00 | 0.28 | 0.24 | 95 | 1006.4 |
| 20260903202205 | 58 | 221 | 6.1 | 10.4 | 0.00 | 0.28 | 0.24 | 95 | 1006.5 |
| 20260903201704 | 58 | 218 | 6.1 | 10.4 | 0.00 | 0.28 | 0.24 | 95 | 1006.5 |
| 20260903200704 | 58 | 219 | 6.1 | 13.0 | 0.00 | 0.28 | 0.24 | 95 | 1006.3 |
| 20260903200203 | 58 | 226 | 7.8 | 10.4 | 0.00 | 0.28 | 0.24 | 95 | 1006.4 |
| 20260903195704 | 58 | 248 | 6.1 | 12.2 | 0.00 | 0.28 | 0.24 | 96 | 1007.0 |
| 20260903195204 | 58 | 223 | 6.1 | 10.4 | 0.00 | 0.28 | 0.24 | 95 | 1006.7 |
| 20260903194704 | 57 | 233 | 6.1 | 10.4 | 0.00 | 0.28 | 0.24 | 96 | 1006.9 |
| 20260903193704 | 57 | 224 | 6.1 | 12.2 | 0.00 | 0.28 | 0.24 | 96 | 1006.9 |
| 20260903193204 | 57 | 225 | 7.0 | 13.0 | 0.00 | 0.28 | 0.24 | 96 | 1007.0 |
| 20260903192704 | 57 | 228 | 6.1 | 13.0 | 0.01 | 0.28 | 0.24 | 96 | 1006.9 |
| 20260903192204 | 57 | 234 | 5.2 | 10.4 | 0.01 | 0.28 | 0.24 | 96 | 1007.0 |
| 20260903191703 | 57 | 227 | 7.8 | 13.0 | 0.01 | 0.28 | 0.24 | 96 | 1007.2 |
| 20260903191204 | 57 | 221 | 8.7 | 13.0 | 0.01 | 0.28 | 0.24 | 96 | 1007.2 |
| 20260903190703 | 57 | 215 | 7.0 | 14.8 | 0.01 | 0.29 | 0.24 | 96 | 1007.2 |
| 20260903190204 | 57 | 242 | 5.2 | 11.3 | 0.01 | 0.29 | 0.24 | 96 | 1007.3 |
| 20260903185704 | 57 | 230 | 5.2 | 11.3 | 0.01 | 0.29 | 0.24 | 96 | 1007.1 |
| 20260903185205 | 57 | 231 | 6.1 | 10.4 | 0.01 | 0.29 | 0.24 | 96 | 1007.3 |
| 20260903184204 | 57 | 228 | 6.1 | 13.0 | 0.02 | 0.29 | 0.24 | 96 | 1007.3 |
| 20260903183204 | 57 | 237 | 6.1 | 11.3 | 0.02 | 0.29 | 0.24 | 95 | 1007.8 |
| 20260903182704 | 57 | 238 | 6.1 | 11.3 | 0.01 | 0.28 | 0.23 | 95 | 1007.7 |
| 20260903182204 | 56 | 230 | 4.3 | 8.7 | 0.02 | 0.28 | 0.23 | 95 | 1007.6 |
| 20260903181703 | 56 | 227 | 6.1 | 10.4 | 0.02 | 0.28 | 0.23 | 95 | 1007.8 |
| 20260903181204 | 56 | 210 | 5.2 | 10.4 | 0.02 | 0.28 | 0.23 | 95 | 1007.7 |
| 20260903180204 | 57 | 217 | 5.2 | 10.4 | 0.03 | 0.28 | 0.23 | 95 | 1007.8 |
| 20260903175204 | 57 | 219 | 5.2 | 11.3 | 0.04 | 0.28 | 0.23 | 95 | 1007.9 |
| 20260903174204 | 56 | 223 | 6.1 | 13.0 | 0.04 | 0.28 | 0.22 | 95 | 1008.3 |
| 20260903173704 | 57 | 218 | 8.7 | 17.4 | 0.05 | 0.28 | 0.22 | 95 | 1008.3 |
| 20260903173204 | 57 | 221 | 8.7 | 13.9 | 0.05 | 0.28 | 0.22 | 95 | 1008.4 |
| 20260903172704 | 57 | 225 | 7.0 | 13.0 | 0.06 | 0.28 | 0.22 | 95 | 1008.4 |
| 20260903172204 | 57 | 216 | 8.7 | 13.9 | 0.06 | 0.27 | 0.21 | 95 | 1008.5 |
| 20260903171705 | 57 | 221 | 8.7 | 13.0 | 0.06 | 0.27 | 0.21 | 95 | 1008.4 |
| 20260903171204 | 57 | 215 | 8.7 | 13.9 | 0.06 | 0.26 | 0.20 | 95 | 1008.5 |
| 20260903170705 | 58 | 217 | 7.0 | 13.9 | 0.07 | 0.26 | 0.20 | 95 | 1008.4 |
| 20260903165204 | 58 | 223 | 6.1 | 12.2 | 0.07 | 0.24 | 0.19 | 95 | 1008.5 |
| 20260903164204 | 58 | 214 | 7.8 | 13.9 | 0.09 | 0.24 | 0.18 | 94 | 1008.6 |
| 20260903163704 | 58 | 243 | 10.4 | 14.8 | 0.09 | 0.23 | 0.17 | 94 | 1008.7 |
| 20260903162704 | 59 | 234 | 6.1 | 11.3 | 0.08 | 0.22 | 0.17 | 94 | 1008.9 |
| 20260903162204 | 59 | 238 | 4.3 | 7.8 | 0.07 | 0.21 | 0.16 | 94 | 1008.9 |
| 20260903161204 | 59 | 233 | 7.8 | 13.9 | 0.06 | 0.20 | 0.14 | 94 | 1008.9 |
| 20260903160704 | 59 | 238 | 8.7 | 13.0 | 0.05 | 0.19 | 0.13 | 93 | 1009.0 |
| 20260903160204 | 59 | 221 | 6.1 | 12.2 | 0.04 | 0.18 | 0.13 | 94 | 1009.0 |
| 20260903155704 | 59 | 230 | 6.1 | 11.3 | 0.03 | 0.17 | 0.12 | 93 | 1009.0 |
| 20260903155203 | 59 | 238 | 7.8 | 13.0 | 0.03 | 0.17 | 0.12 | 93 | 1009.1 |
| 20260903154704 | 59 | 234 | 7.8 | 13.9 | 0.02 | 0.16 | 0.10 | 93 | 1009.2 |
| 20260903154204 | 59 | 227 | 6.1 | 11.3 | 0.01 | 0.15 | 0.09 | 93 | 1009.0 |
| 20260903153704 | 59 | 230 | 6.1 | 12.2 | 0.00 | 0.14 | 0.09 | 93 | 1009.1 |
| 20260903152704 | 60 | 223 | 7.8 | 13.9 | 0.01 | 0.14 | 0.09 | 93 | 1009.2 |
| 20260903150704 | 60 | 236 | 6.1 | 10.4 | 0.01 | 0.14 | 0.09 | 93 | 1009.3 |
| 20260903145704 | 60 | 237 | 6.1 | 10.4 | 0.02 | 0.14 | 0.09 | 93 | 1009.4 |
| 20260903145203 | 60 | 236 | 5.2 | 11.3 | 0.02 | 0.14 | 0.09 | 93 | 1009.6 |
| 20260903144703 | 60 | 240 | 7.0 | 14.8 | 0.02 | 0.14 | 0.09 | 93 | 1009.7 |
| 20260903143204 | 60 | 245 | 7.8 | 11.3 | 0.02 | 0.14 | 0.09 | 93 | 1009.6 |
| 20260903142703 | 60 | 235 | 6.1 | 12.2 | 0.01 | 0.13 | 0.08 | 93 | 1009.6 |
| 20260903142204 | 60 | 243 | 5.2 | 12.2 | 0.01 | 0.13 | 0.08 | 93 | 1009.7 |
| 20260903141704 | 60 | 224 | 7.0 | 10.4 | 0.01 | 0.13 | 0.08 | 93 | 1009.7 |
| 20260903141203 | 60 | 209 | 8.7 | 10.4 | 0.01 | 0.13 | 0.08 | 93 | 1009.7 |
| 20260903140703 | 60 | 245 | 10.4 | 17.4 | 0.02 | 0.13 | 0.08 | 93 | 1009.7 |
| 20260903135703 | 60 | 262 | 7.8 | 13.9 | 0.01 | 0.13 | 0.07 | 93 | 1010.1 |
| 20260903135204 | 60 | 229 | 7.0 | 12.2 | 0.01 | 0.13 | 0.07 | 93 | 1010.1 |
| 20260903134705 | 60 | 218 | 7.8 | 17.4 | 0.01 | 0.13 | 0.07 | 93 | 1010.1 |
| 20260903134204 | 60 | 222 | 6.1 | 12.2 | 0.01 | 0.13 | 0.07 | 93 | 1010.2 |
| 20260903133203 | 60 | 232 | 8.7 | 13.9 | 0.02 | 0.13 | 0.07 | 92 | 1010.3 |
| 20260903132704 | 60 | 245 | 8.7 | 13.0 | 0.02 | 0.13 | 0.07 | 92 | 1010.5 |
| 20260903132203 | 60 | 243 | 7.8 | 13.9 | 0.02 | 0.13 | 0.07 | 92 | 1010.4 |
| 20260903131204 | 60 | 230 | 7.0 | 13.9 | 0.02 | 0.13 | 0.07 | 92 | 1010.5 |
| 20260903130703 | 60 | 234 | 9.6 | 15.6 | 0.01 | 0.12 | 0.06 | 91 | 1010.6 |
| 20260903125704 | 60 | 235 | 7.8 | 12.2 | 0.01 | 0.12 | 0.06 | 91 | 1010.4 |
| 20260903125204 | 60 | 233 | 7.8 | 17.4 | 0.01 | 0.12 | 0.06 | 90 | 1010.5 |
| 20260903124704 | 60 | 237 | 7.8 | 13.0 | 0.01 | 0.12 | 0.06 | 90 | 1010.6 |
| 20260903124204 | 61 | 239 | 6.1 | 11.3 | 0.01 | 0.12 | 0.06 | 90 | 1010.6 |
| 20260903123704 | 61 | 230 | 6.1 | 12.2 | 0.01 | 0.12 | 0.06 | 89 | 1010.6 |
| 20260903123204 | 61 | 232 | 6.1 | 13.0 | 0.00 | 0.11 | 0.06 | 88 | 1010.5 |
| 20260903122703 | 61 | 246 | 6.1 | 13.0 | 0.00 | 0.11 | 0.06 | 87 | 1010.3 |
| 20260903122204 | 61 | 257 | 7.8 | 12.2 | 0.00 | 0.11 | 0.06 | 87 | 1010.3 |
| 20260903121704 | 61 | 245 | 6.1 | 13.9 | 0.00 | 0.11 | 0.06 | 86 | 1010.2 |
| 20260903121203 | 61 | 239 | 7.8 | 14.8 | 0.00 | 0.11 | 0.06 | 85 | 1010.3 |
| 20260903120704 | 62 | 237 | 10.4 | 18.2 | 0.00 | 0.11 | 0.06 | 85 | 1010.5 |
| 20260903120203 | 62 | 243 | 9.6 | 14.8 | 0.00 | 0.11 | 0.06 | 85 | 1010.3 |
| 20260903115704 | 62 | 248 | 10.4 | 17.4 | 0.00 | 0.11 | 0.06 | 85 | 1010.4 |
| 20260903115203 | 62 | 239 | 10.4 | 18.2 | 0.00 | 0.11 | 0.06 | 85 | 1010.1 |
| 20260903114704 | 63 | 244 | 8.7 | 17.4 | 0.00 | 0.11 | 0.06 | 85 | 1010.0 |
| 20260903114204 | 63 | 238 | 8.7 | 15.6 | 0.00 | 0.11 | 0.06 | 85 | 1010.0 |
| 20260903113704 | 62 | 242 | 10.4 | 17.4 | 0.00 | 0.11 | 0.06 | 84 | 1009.9 |
| 20260903113204 | 63 | 230 | 11.3 | 17.4 | 0.00 | 0.11 | 0.06 | 85 | 1009.9 |
| 20260903112704 | 63 | 230 | 8.7 | 15.6 | 0.00 | 0.11 | 0.06 | 86 | 1009.8 |
| 20260903112204 | 63 | 242 | 9.6 | 19.1 | 0.00 | 0.11 | 0.06 | 86 | 1010.1 |
| 20260903111704 | 63 | 244 | 8.7 | 17.4 | 0.00 | 0.11 | 0.06 | 87 | 1010.1 |
| 20260903111203 | 62 | 233 | 8.7 | 19.1 | 0.00 | 0.11 | 0.06 | 88 | 1010.1 |
| 20260903110704 | 62 | 239 | 8.7 | 17.4 | 0.00 | 0.11 | 0.06 | 87 | 1010.1 |
| 20260903110204 | 62 | 237 | 8.7 | 15.6 | 0.00 | 0.11 | 0.06 | 88 | 1010.0 |
| 20260903105703 | 62 | 260 | 10.4 | 15.6 | 0.00 | 0.11 | 0.06 | 88 | 1010.0 |
| 20260903105204 | 63 | 244 | 8.7 | 13.9 | 0.00 | 0.11 | 0.06 | 88 | 1009.9 |
| 20260903104703 | 63 | 238 | 7.8 | 17.4 | 0.00 | 0.11 | 0.06 | 88 | 1009.7 |